User: anonymous   Login
Location: Unspecified
(0.0000°N, 0.0000°E)
Time: 17:19:12
(UTC+02:00)
Language:

ARIANE 5 R/B - Orbit

View from above orbital plane
View from above orbital plane
View from above satellite
View from above satellite

Ground track
Ground track

The orbit data is extracted from the following two-line orbital elements,

1 28787U 05028B   15242.33301513 -.00000181  00000-0  33791-4 0  9998
2 28787 007.0669 292.2465 7165072 061.4940 004.2041 02.26556738 83224
Epoch (UTC): 30 August 2015 07:59:32
Eccentricity: 0.7165072
inclination: 7.0669°
perigee height: 564 km
apogee height: 35655 km
right ascension of ascending node: 292.2465°
argument of perigee: 61.4940°
revolutions per day: 2.26556738
mean anomaly at epoch: 4.2041°
orbit number at epoch: 8322

The dashed part of the orbit path shows where the satellite is in the earth's shadow,  

DLR